Weather History for KSJX - July, 2013

Change the Weather History Date:

Thursday, July 18, 2013

  Actual Average Record
Temperature  
Mean Temperature 72 °F -  
Max Temperature 79 °F 78 °F 89 °F (1983)
Min Temperature 65 °F 58 °F 43 °F (1956)
Cooling Degree Days 7    
Growing Degree Days 22 (Base 50)    
Moisture  
Dew Point 67 °F    
Average Humidity 85    
Maximum Humidity 99    
Minimum Humidity 68    
Precipitation  
Precipitation 0.00 in - - ()
Sea Level Pressure  
Sea Level Pressure 29.98 in    
Wind  
Wind Speed 7 mph (South)    
Max Wind Speed 21 mph    
Max Gust Speed 31 mph    
Visibility 10 miles    
Events Rain    
Averages and records for this station are not official NWS values.
T = Trace of Precipitation, MM = Missing Value Source: NWS Daily Summary

Daily Weather History Graph

Daily Weather History Graph

Search for Another Location

Airport or City:

Trip Planner

Search our weather history database for the weather conditions in past years. The results will help you decide how hot, cold, wet, or windy it might be!

Date:

Astronomy

Jul. 18, 2013 Rise Set
Actual Time 6:10 AM EDT 9:25 PM EDT
Civil Twilight 5:34 AM EDT 10:02 PM EDT
Nautical Twilight 4:47 AM EDT 10:48 PM EDT
Astronomical Twilight 3:48 AM EDT 11:47 PM EDT
Moon 5:20 PM EDT (7/18) 2:03 AM EDT (7/18)
Length of Visible Light 16h 27m
Length of Day
15h 15m
Waxing Gibbous, 77% of the Moon is Illuminated
Jul 18
Waxing Gibbous
Jul 22
Full
Jul 29
Last Quarter
Aug 6
New
Aug 14
First Quarter

Hourly Weather History & Observations

Time (EDT) Temp. Dew Point Humidity Pressure Visibility Wind Dir Wind Speed Gust Speed Precip Events Conditions
12:15 AM 70.9 °F 64.6 °F 80% 30.12 in 10.0 mi SSW 5.8 mph - N/A   Scattered Clouds
12:35 AM 71.2 °F 64.6 °F 79% 30.12 in 10.0 mi SW 4.6 mph - N/A   Mostly Cloudy
12:54 AM 70.9 °F 64.6 °F 80% 30.11 in 10.0 mi SSW 5.8 mph - N/A   Mostly Cloudy
1:15 AM 70.7 °F 64.4 °F 80% 30.10 in 10.0 mi SSW 4.6 mph - N/A   Scattered Clouds
1:35 AM 70.7 °F 65.3 °F 83% 30.09 in 10.0 mi South 6.9 mph - N/A   Clear
1:55 AM 70.3 °F 65.8 °F 86% 30.09 in 10.0 mi SW 4.6 mph - N/A   Clear
2:15 AM 70.3 °F 66.4 °F 87% 30.09 in 10.0 mi SW 6.9 mph - N/A   Scattered Clouds
2:35 AM 69.8 °F 66.6 °F 89% 30.09 in 10.0 mi WSW 9.2 mph - N/A   Scattered Clouds
2:55 AM 69.4 °F 66.7 °F 91% 30.08 in 10.0 mi SW 4.6 mph - N/A   Mostly Cloudy
3:15 AM 69.1 °F 66.6 °F 92% 30.08 in 10.0 mi SW 8.1 mph - N/A   Mostly Cloudy
3:35 AM 68.9 °F 66.7 °F 93% 30.08 in 10.0 mi WSW 5.8 mph - N/A   Mostly Cloudy
3:55 AM 68.0 °F 66.6 °F 95% 30.07 in 10.0 mi SW 4.6 mph - N/A   Mostly Cloudy
4:15 AM 68.0 °F 66.6 °F 95% 30.07 in 10.0 mi WSW 4.6 mph - N/A   Mostly Cloudy
4:35 AM 68.0 °F 66.6 °F 95% 30.07 in 10.0 mi SW 4.6 mph - N/A   Mostly Cloudy
4:55 AM 68.2 °F 67.1 °F 96% 30.08 in 10.0 mi WSW 4.6 mph - N/A   Overcast
5:15 AM 68.2 °F 67.1 °F 96% 30.09 in 7.0 mi West 9.2 mph 16.1 mph N/A   Overcast
5:34 AM 67.1 °F 66.2 °F 97% 30.09 in 7.0 mi NW 5.8 mph - N/A   Mostly Cloudy
5:55 AM 66.2 °F 65.7 °F 98% 30.08 in 7.0 mi NNE 6.9 mph - N/A   Scattered Clouds
6:15 AM 65.8 °F 65.3 °F 98% 30.08 in 7.0 mi NE 3.5 mph - N/A   Scattered Clouds
6:35 AM 65.7 °F 65.3 °F 99% 30.07 in 10.0 mi East 4.6 mph - N/A   Clear
6:55 AM 65.5 °F 65.3 °F 99% 30.07 in 7.0 mi East 4.6 mph - N/A   Clear
7:15 AM 66.2 °F 66.0 °F 99% 30.07 in 5.0 mi ESE 4.6 mph - N/A   Mostly Cloudy
7:35 AM 66.4 °F 66.2 °F 99% 30.07 in 7.0 mi East 4.6 mph - N/A   Scattered Clouds
7:55 AM 67.8 °F 66.9 °F 97% 30.06 in 10.0 mi ESE 3.5 mph - N/A   Clear
8:15 AM 69.8 °F 67.5 °F 92% 30.06 in 10.0 mi SE 3.5 mph - N/A   Clear
8:35 AM 71.4 °F 68.0 °F 89% 30.06 in 10.0 mi ESE 3.5 mph - N/A   Clear
8:55 AM 73.6 °F 68.2 °F 83% 30.05 in 10.0 mi SE 3.5 mph - N/A   Clear
9:14 AM 72.5 °F 67.8 °F 85% 30.06 in 10.0 mi Calm Calm - N/A   Clear
9:35 AM 70.0 °F 67.1 °F 91% 30.06 in 10.0 mi WSW 3.5 mph - N/A   Scattered Clouds
9:55 AM 67.1 °F 65.5 °F 95% 30.10 in 2.0 mi NNW 5.8 mph 9.2 mph N/A Rain Heavy Rain
10:15 AM 67.8 °F 67.3 °F 98% 30.08 in 7.0 mi East 8.1 mph - N/A   Mostly Cloudy
10:35 AM 67.3 °F 66.0 °F 96% 30.09 in 10.0 mi ESE 3.5 mph - N/A Rain Light Rain
10:55 AM 66.6 °F 66.0 °F 98% 30.09 in 10.0 mi North 4.6 mph - N/A Rain Light Rain
11:15 AM 66.2 °F 65.7 °F 98% 30.08 in 10.0 mi Calm Calm - N/A Rain Light Rain
11:35 AM 67.1 °F 66.4 °F 98% 30.06 in 10.0 mi ESE 5.8 mph - N/A   Scattered Clouds
11:54 AM 68.2 °F 67.3 °F 97% 30.05 in 10.0 mi East 5.8 mph - N/A   Scattered Clouds
12:15 PM 68.9 °F 67.1 °F 94% 30.04 in 10.0 mi East 5.8 mph - N/A   Scattered Clouds
12:35 PM 69.6 °F 66.7 °F 91% 30.03 in 10.0 mi ESE 8.1 mph - N/A   Scattered Clouds
12:55 PM 71.6 °F 67.6 °F 87% 30.02 in 10.0 mi ESE 8.1 mph - N/A   Clear
1:15 PM 72.7 °F 67.5 °F 84% 30.01 in 10.0 mi SE 8.1 mph - N/A   Clear
1:35 PM 69.8 °F 68.0 °F 94% 30.02 in 5.0 mi ENE 3.5 mph - N/A Rain Light Rain
1:55 PM 71.4 °F 69.6 °F 94% 30.01 in 10.0 mi ESE 5.8 mph - N/A   Scattered Clouds
2:15 PM 74.5 °F 70.0 °F 86% 30.00 in 10.0 mi SSE 6.9 mph - N/A   Clear
2:34 PM 75.9 °F 69.6 °F 81% 29.98 in 10.0 mi SE 5.8 mph - N/A   Clear
2:55 PM 77.2 °F 68.7 °F 75% 29.98 in 10.0 mi South 4.6 mph - N/A   Clear
3:14 PM 79.0 °F 68.7 °F 71% 29.97 in 10.0 mi South 5.8 mph - N/A   Clear
3:35 PM 78.1 °F 67.8 °F 71% 29.95 in 10.0 mi SSW 6.9 mph - N/A   Clear
3:55 PM 77.0 °F 67.6 °F 73% 29.94 in 10.0 mi SSW 5.8 mph - N/A   Clear
4:15 PM 77.5 °F 67.3 °F 71% 29.93 in 10.0 mi South 9.2 mph - N/A   Clear
4:35 PM 76.1 °F 67.5 °F 74% 29.92 in 10.0 mi SSW 8.1 mph - N/A   Clear
4:55 PM 77.2 °F 68.9 °F 76% 29.90 in 10.0 mi South 10.4 mph - N/A   Clear
5:15 PM 78.8 °F 68.5 °F 71% 29.89 in 10.0 mi SSW 13.8 mph 23.0 mph N/A   Clear
5:35 PM 79.0 °F 68.7 °F 71% 29.87 in 10.0 mi SSW 10.4 mph 17.3 mph N/A   Clear
5:55 PM 79.2 °F 68.2 °F 69% 29.87 in 10.0 mi SSW 13.8 mph 25.3 mph N/A   Clear
6:15 PM 79.3 °F 68.2 °F 69% 29.87 in 10.0 mi SSW 12.7 mph 21.9 mph N/A   Clear
6:35 PM 79.0 °F 68.0 °F 69% 29.85 in 10.0 mi SSW 15.0 mph 25.3 mph N/A   Clear
6:54 PM 79.2 °F 67.6 °F 68% 29.83 in 10.0 mi SSW 16.1 mph 24.2 mph N/A   Clear
7:15 PM 76.1 °F 66.9 °F 73% 29.83 in 10.0 mi SSW 13.8 mph 26.5 mph N/A   Clear
7:35 PM 75.2 °F 66.6 °F 74% 29.82 in 10.0 mi SSW 13.8 mph 25.3 mph N/A   Scattered Clouds
7:55 PM 75.0 °F 66.6 °F 75% 29.81 in 10.0 mi SSW 17.3 mph 26.5 mph N/A   Scattered Clouds
8:15 PM 75.2 °F 66.7 °F 75% 29.80 in 10.0 mi SSW 13.8 mph 26.5 mph N/A   Scattered Clouds
8:34 PM 75.7 °F 66.6 °F 73% 29.81 in 10.0 mi SSW 20.7 mph 27.6 mph N/A   Scattered Clouds
8:55 PM 74.3 °F 66.2 °F 76% 29.80 in 10.0 mi SSW 16.1 mph 31.1 mph N/A   Scattered Clouds
9:15 PM 73.4 °F 66.2 °F 78% 29.79 in 10.0 mi SSW 17.3 mph 25.3 mph N/A   Clear
9:35 PM 72.9 °F 66.0 °F 79% 29.79 in 10.0 mi SSW 12.7 mph 26.5 mph N/A   Mostly Cloudy
9:55 PM 72.9 °F 66.2 °F 80% 29.78 in 10.0 mi SSW 15.0 mph 24.2 mph N/A   Mostly Cloudy
10:15 PM 73.2 °F 65.8 °F 78% 29.79 in 10.0 mi SSW 15.0 mph 23.0 mph N/A   Scattered Clouds
10:35 PM 72.7 °F 66.0 °F 80% 29.78 in 10.0 mi SSW 15.0 mph 24.2 mph N/A   Clear
10:55 PM 72.0 °F 65.8 °F 81% 29.78 in 10.0 mi SSW 12.7 mph 20.7 mph N/A   Clear
11:15 PM 72.5 °F 65.8 °F 80% 29.78 in 10.0 mi SSW 16.1 mph 23.0 mph N/A   Clear
11:35 PM 72.9 °F 65.7 °F 78% 29.78 in 10.0 mi SSW 18.4 mph 26.5 mph N/A   Clear
11:54 PM 71.8 °F 65.5 °F 80% 29.77 in 10.0 mi SW 16.1 mph 23.0 mph N/A   Clear